Location: Wellington
(41.3000°S, 174.7830°E)
Time: 18:42:52
(UTC+13:00)

Cosmos 1939 Rocket - Pass Details

Date: 24 January 2019
Orbit: 531 x 586 km, 97.5° (Epoch: 17 February)

Event Time Altitude Azimuth Distance (km) Brightness Sun altitude
Rises 21:27:21 0° 167° (SSE) 2,849 6.7 -7.0°
Reaches altitude 10° 21:29:33 10° 165° (SSE) 1,944 5.9 -7.4°
Maximum altitude 21:33:47 77° 79° (E) 617 2.9 -8.0°
Drops below altitude 10° 21:37:57 10° 352° (N) 1,917 5.3 -8.7°
Sets 21:40:06 0° 350° (N) 2,806 6.2 -9.0°
